Year,Month,Day,Hour,Minute,Value (Times are PST for temperature in C)
2010,08,18,00,00,21.20
2010,08,18,00,01,21.20
2010,08,18,00,02,21.20
2010,08,18,00,03,21.20
2010,08,18,00,04,21.20
2010,08,18,00,05,21.10
2010,08,18,00,06,21.10
2010,08,18,00,07,21.10
2010,08,18,00,08,21.10
2010,08,18,00,09,21.00
2010,08,18,00,10,21.00
2010,08,18,00,11,21.00
2010,08,18,00,12,20.90
2010,08,18,00,13,20.90
2010,08,18,00,14,20.90
2010,08,18,00,15,20.90
2010,08,18,00,16,20.90
2010,08,18,00,17,20.90
2010,08,18,00,18,20.90
2010,08,18,00,19,20.90
2010,08,18,00,20,20.90
2010,08,18,00,21,20.90
2010,08,18,00,22,20.90
2010,08,18,00,23,20.90
2010,08,18,00,24,20.90
2010,08,18,00,25,20.90
2010,08,18,00,26,21.00
2010,08,18,00,27,21.00
2010,08,18,00,28,21.00
2010,08,18,00,29,21.00
2010,08,18,00,30,21.10
2010,08,18,00,31,21.10
2010,08,18,00,32,21.10
2010,08,18,00,33,21.10
2010,08,18,00,34,21.10
2010,08,18,00,35,21.10
2010,08,18,00,36,21.10
2010,08,18,00,37,21.10
2010,08,18,00,38,21.10
2010,08,18,00,39,21.10
2010,08,18,00,40,21.10
2010,08,18,00,41,21.00
2010,08,18,00,42,21.00
2010,08,18,00,43,20.90
2010,08,18,00,44,20.80
2010,08,18,00,45,20.80
2010,08,18,00,46,20.70
2010,08,18,00,47,20.60
2010,08,18,00,48,20.50
2010,08,18,00,49,20.50
2010,08,18,00,50,20.40
2010,08,18,00,51,20.40
2010,08,18,00,52,20.30
2010,08,18,00,53,20.30
2010,08,18,00,54,20.30
2010,08,18,00,55,20.30
2010,08,18,00,56,20.30
2010,08,18,00,57,20.30
2010,08,18,00,58,20.30
2010,08,18,00,59,20.30
2010,08,18,01,00,20.30
2010,08,18,01,01,20.30
2010,08,18,01,02,20.30
2010,08,18,01,03,20.30
2010,08,18,01,04,20.40
2010,08,18,01,05,20.40
2010,08,18,01,06,20.40
2010,08,18,01,07,20.40
2010,08,18,01,08,20.30
2010,08,18,01,09,20.30
2010,08,18,01,10,20.40
2010,08,18,01,11,20.40
2010,08,18,01,12,20.50
2010,08,18,01,13,20.50
2010,08,18,01,14,20.60
2010,08,18,01,15,20.60
2010,08,18,01,16,20.70
2010,08,18,01,17,20.70
2010,08,18,01,18,20.80
2010,08,18,01,19,20.80
2010,08,18,01,20,20.90
2010,08,18,01,21,20.90
2010,08,18,01,22,20.90
2010,08,18,01,23,20.90
2010,08,18,01,24,20.90
2010,08,18,01,25,20.90
2010,08,18,01,26,20.90
2010,08,18,01,27,20.90
2010,08,18,01,28,20.90
2010,08,18,01,29,20.80
2010,08,18,01,30,20.80
2010,08,18,01,31,20.80
2010,08,18,01,32,20.80
2010,08,18,01,33,20.80
2010,08,18,01,34,20.80
2010,08,18,01,35,20.80
2010,08,18,01,36,20.80
2010,08,18,01,37,20.80
2010,08,18,01,38,20.80
2010,08,18,01,39,20.80
2010,08,18,01,40,20.80
2010,08,18,01,41,20.80
2010,08,18,01,42,20.90
2010,08,18,01,43,20.90
2010,08,18,01,44,20.90
2010,08,18,01,45,20.90
2010,08,18,01,46,20.90
2010,08,18,01,47,20.90
2010,08,18,01,48,20.90
2010,08,18,01,49,20.90
2010,08,18,01,50,21.00
2010,08,18,01,51,21.00
2010,08,18,01,52,21.00
2010,08,18,01,53,21.00
2010,08,18,01,54,21.00
2010,08,18,01,55,20.90
2010,08,18,01,56,20.90
2010,08,18,01,57,20.90
2010,08,18,01,58,20.90
2010,08,18,01,59,20.90
2010,08,18,02,00,20.80
2010,08,18,02,01,20.80
2010,08,18,02,02,20.80
2010,08,18,02,03,20.80
2010,08,18,02,04,20.80
2010,08,18,02,05,20.80
2010,08,18,02,06,20.80
2010,08,18,02,07,20.80
2010,08,18,02,08,20.80
2010,08,18,02,09,20.80
2010,08,18,02,10,20.80
2010,08,18,02,11,20.80
2010,08,18,02,12,20.80
2010,08,18,02,13,20.80
2010,08,18,02,14,20.70
2010,08,18,02,15,20.70
2010,08,18,02,16,20.70
2010,08,18,02,17,20.60
2010,08,18,02,18,20.60
2010,08,18,02,19,20.60
2010,08,18,02,20,20.50
2010,08,18,02,21,20.50
2010,08,18,02,22,20.40
2010,08,18,02,23,20.40
2010,08,18,02,24,20.40
2010,08,18,02,25,20.30
2010,08,18,02,26,20.30
2010,08,18,02,27,20.30
2010,08,18,02,28,20.30
2010,08,18,02,29,20.20
2010,08,18,02,30,20.20
2010,08,18,02,31,20.20
2010,08,18,02,32,20.20
2010,08,18,02,33,20.20
2010,08,18,02,34,20.20
2010,08,18,02,35,20.10
2010,08,18,02,36,20.10
2010,08,18,02,37,20.10
2010,08,18,02,38,20.10
2010,08,18,02,39,20.00
2010,08,18,02,40,20.00
2010,08,18,02,41,20.00
2010,08,18,02,42,20.00
2010,08,18,02,43,20.00
2010,08,18,02,44,20.00
2010,08,18,02,45,20.00
2010,08,18,02,46,19.90
2010,08,18,02,47,19.90
2010,08,18,02,48,19.90
2010,08,18,02,49,19.90
2010,08,18,02,50,19.90
2010,08,18,02,51,19.80
2010,08,18,02,52,19.80
2010,08,18,02,53,19.80
2010,08,18,02,54,19.80
2010,08,18,02,55,19.70
2010,08,18,02,56,19.70
2010,08,18,02,57,19.60
2010,08,18,02,58,19.60
2010,08,18,02,59,19.60
2010,08,18,03,00,19.50
2010,08,18,03,01,19.50
2010,08,18,03,02,19.40
2010,08,18,03,03,19.40
2010,08,18,03,04,19.40
2010,08,18,03,05,19.30
2010,08,18,03,06,19.30
2010,08,18,03,07,19.30
2010,08,18,03,08,19.30
2010,08,18,03,09,19.30
2010,08,18,03,10,19.40
2010,08,18,03,11,19.40
2010,08,18,03,12,19.40
2010,08,18,03,13,19.40
2010,08,18,03,14,19.50
2010,08,18,03,15,19.50
2010,08,18,03,16,19.50
2010,08,18,03,17,19.50
2010,08,18,03,18,19.50
2010,08,18,03,19,19.50
2010,08,18,03,20,19.50
2010,08,18,03,21,19.50
2010,08,18,03,22,19.50
2010,08,18,03,23,19.50
2010,08,18,03,24,19.50
2010,08,18,03,25,19.40
2010,08,18,03,26,19.40
2010,08,18,03,27,19.40
2010,08,18,03,28,19.40
2010,08,18,03,29,19.40
2010,08,18,03,30,19.30
2010,08,18,03,31,19.30
2010,08,18,03,32,19.30
2010,08,18,03,33,19.30
2010,08,18,03,34,19.30
2010,08,18,03,35,19.30
2010,08,18,03,36,19.30
2010,08,18,03,37,19.30
2010,08,18,03,38,19.30
2010,08,18,03,39,19.30
2010,08,18,03,40,19.30
2010,08,18,03,41,19.30
2010,08,18,03,42,19.20
2010,08,18,03,43,19.20
2010,08,18,03,44,19.10
2010,08,18,03,45,19.10
2010,08,18,03,46,19.00
2010,08,18,03,47,18.90
2010,08,18,03,48,18.80
2010,08,18,03,49,18.70
2010,08,18,03,50,18.60
2010,08,18,03,51,18.60
2010,08,18,03,52,18.60
2010,08,18,03,53,18.50
2010,08,18,03,54,18.40
2010,08,18,03,55,18.40
2010,08,18,03,56,18.30
2010,08,18,03,57,18.30
2010,08,18,03,58,18.30
2010,08,18,03,59,18.30
2010,08,18,04,00,18.30
2010,08,18,04,01,18.30
2010,08,18,04,02,18.30
2010,08,18,04,03,18.30
2010,08,18,04,04,18.20
2010,08,18,04,05,18.20
2010,08,18,04,06,18.20
2010,08,18,04,07,18.10
2010,08,18,04,08,18.10
2010,08,18,04,09,18.10
2010,08,18,04,10,18.00
2010,08,18,04,11,18.00
2010,08,18,04,12,18.00
2010,08,18,04,13,18.00
2010,08,18,04,14,18.00
2010,08,18,04,15,18.00
2010,08,18,04,16,18.00
2010,08,18,04,17,18.00
2010,08,18,04,18,18.00
2010,08,18,04,19,18.00
2010,08,18,04,20,18.00
2010,08,18,04,21,18.00
2010,08,18,04,22,18.10
2010,08,18,04,23,18.10
2010,08,18,04,24,18.10
2010,08,18,04,25,18.10
2010,08,18,04,26,18.10
2010,08,18,04,27,18.10
2010,08,18,04,28,18.20
2010,08,18,04,29,18.20
2010,08,18,04,30,18.20
2010,08,18,04,31,18.20
2010,08,18,04,32,18.20
2010,08,18,04,33,18.20
2010,08,18,04,34,18.10
2010,08,18,04,35,18.10
2010,08,18,04,36,18.10
2010,08,18,04,37,18.10
2010,08,18,04,38,18.10
2010,08,18,04,39,18.00
2010,08,18,04,40,18.00
2010,08,18,04,41,18.10
2010,08,18,04,42,18.10
2010,08,18,04,43,18.10
2010,08,18,04,44,18.10
2010,08,18,04,45,18.10
2010,08,18,04,46,18.00
2010,08,18,04,47,18.00
2010,08,18,04,48,18.00
2010,08,18,04,49,18.00
2010,08,18,04,50,18.00
2010,08,18,04,51,18.10
2010,08,18,04,52,18.10
2010,08,18,04,53,18.10
2010,08,18,04,54,18.10
2010,08,18,04,55,18.20
2010,08,18,04,56,18.20
2010,08,18,04,57,18.20
2010,08,18,04,58,18.20
2010,08,18,04,59,18.20
2010,08,18,05,00,18.20
2010,08,18,05,01,18.20
2010,08,18,05,02,18.20
2010,08,18,05,03,18.20
2010,08,18,05,04,18.20
2010,08,18,05,05,18.20
2010,08,18,05,06,18.20
2010,08,18,05,07,18.20
2010,08,18,05,08,18.20
2010,08,18,05,09,18.10
2010,08,18,05,10,18.10
2010,08,18,05,11,18.10
2010,08,18,05,12,18.10
2010,08,18,05,13,18.00
2010,08,18,05,14,17.90
2010,08,18,05,15,17.90
2010,08,18,05,16,17.80
2010,08,18,05,17,17.80
2010,08,18,05,18,17.80
2010,08,18,05,19,17.70
2010,08,18,05,20,17.70
2010,08,18,05,21,17.70
2010,08,18,05,22,17.70
2010,08,18,05,23,17.60
2010,08,18,05,24,17.60
2010,08,18,05,25,17.50
2010,08,18,05,26,17.50
2010,08,18,05,27,17.40
2010,08,18,05,28,17.40
2010,08,18,05,29,17.30
2010,08,18,05,30,17.20
2010,08,18,05,31,17.10
2010,08,18,05,32,17.00
2010,08,18,05,33,17.00
2010,08,18,05,34,16.90
2010,08,18,05,35,16.90
2010,08,18,05,36,16.90
2010,08,18,05,37,16.90
2010,08,18,05,38,16.90
2010,08,18,05,39,16.90
2010,08,18,05,40,16.90
2010,08,18,05,41,16.90
2010,08,18,05,42,16.90
2010,08,18,05,43,16.90
2010,08,18,06,50,15.60
2010,08,18,06,51,15.60
2010,08,18,06,52,15.60
2010,08,18,06,53,15.60
2010,08,18,06,54,15.60
2010,08,18,06,55,15.60
2010,08,18,06,56,15.60
2010,08,18,06,57,15.60
2010,08,18,06,58,15.60
2010,08,18,06,59,15.60
2010,08,18,07,00,15.60
2010,08,18,07,01,15.60
2010,08,18,07,02,15.60
2010,08,18,07,03,15.60
2010,08,18,07,04,15.60
2010,08,18,07,05,15.60
2010,08,18,07,06,15.60
2010,08,18,07,07,15.60
2010,08,18,07,08,15.70
2010,08,18,07,09,15.70
2010,08,18,07,10,15.70
2010,08,18,07,11,15.80
2010,08,18,07,12,15.80
2010,08,18,07,13,15.80
2010,08,18,07,14,15.90
2010,08,18,07,15,15.90
2010,08,18,07,16,15.90
2010,08,18,07,17,15.90
2010,08,18,07,18,15.90
2010,08,18,07,19,15.90
2010,08,18,07,20,16.00
2010,08,18,07,21,16.00
2010,08,18,07,22,16.10
2010,08,18,07,23,16.10
2010,08,18,07,24,16.10
2010,08,18,07,25,16.20
2010,08,18,07,26,16.20
2010,08,18,07,27,16.30
2010,08,18,07,28,16.30
2010,08,18,07,29,16.40
2010,08,18,07,30,16.40
2010,08,18,07,31,16.50
2010,08,18,07,32,16.60
2010,08,18,07,33,16.60
2010,08,18,07,34,16.60
2010,08,18,07,35,16.70
2010,08,18,07,36,16.70
2010,08,18,07,37,16.70
2010,08,18,07,38,16.80
2010,08,18,07,39,16.90
2010,08,18,07,40,16.90
2010,08,18,07,41,16.90
2010,08,18,07,42,16.90
2010,08,18,07,43,16.90
2010,08,18,07,44,16.90
2010,08,18,07,45,16.80
2010,08,18,07,46,16.80
2010,08,18,07,47,16.80
2010,08,18,07,48,16.80
2010,08,18,07,49,16.70
2010,08,18,07,50,16.60
2010,08,18,07,51,16.50
2010,08,18,07,52,16.40
2010,08,18,07,53,16.30
2010,08,18,07,54,16.30
2010,08,18,07,55,16.30
2010,08,18,07,56,16.30
2010,08,18,07,57,16.30
2010,08,18,07,58,16.30
2010,08,18,07,59,16.30
2010,08,18,08,00,16.20
2010,08,18,08,01,16.20
2010,08,18,08,02,16.10
2010,08,18,08,03,16.10
2010,08,18,08,04,16.10
2010,08,18,08,05,16.10
2010,08,18,08,06,16.10
2010,08,18,08,07,16.20
2010,08,18,08,08,16.20
2010,08,18,08,09,16.20
2010,08,18,08,10,16.20
2010,08,18,08,11,16.20
2010,08,18,08,12,16.30
2010,08,18,08,13,16.20
2010,08,18,08,14,16.20
2010,08,18,08,15,16.10
2010,08,18,08,16,16.00
2010,08,18,08,17,15.90
2010,08,18,08,18,16.00
2010,08,18,08,19,16.10
2010,08,18,08,20,16.10
2010,08,18,08,21,16.10
2010,08,18,08,22,16.10
2010,08,18,08,23,16.20
2010,08,18,08,24,16.20
2010,08,18,08,25,16.20
2010,08,18,08,26,16.20
2010,08,18,08,27,16.20
2010,08,18,08,28,16.20
2010,08,18,08,29,16.20
2010,08,18,08,30,16.20
2010,08,18,08,31,16.20
2010,08,18,08,32,16.30
2010,08,18,08,33,16.30
2010,08,18,08,34,16.30
2010,08,18,08,35,16.30
2010,08,18,08,36,16.30
2010,08,18,08,37,16.40
2010,08,18,08,38,16.50
2010,08,18,08,39,16.60
2010,08,18,08,40,16.70
2010,08,18,08,41,16.70
2010,08,18,08,42,16.70
2010,08,18,08,43,16.70
2010,08,18,08,44,16.60
2010,08,18,08,45,16.60
2010,08,18,08,46,16.60
2010,08,18,08,47,16.60
2010,08,18,08,48,16.60
2010,08,18,08,49,16.60
2010,08,18,08,50,16.50
2010,08,18,08,51,16.50
2010,08,18,08,52,16.40
2010,08,18,08,53,16.40
2010,08,18,08,54,16.50
2010,08,18,08,55,16.50
2010,08,18,08,56,16.60
2010,08,18,08,57,16.70
2010,08,18,08,58,16.80
2010,08,18,08,59,16.70
2010,08,18,09,00,16.60
2010,08,18,09,01,16.60
2010,08,18,09,02,16.60
2010,08,18,09,03,16.60
2010,08,18,09,04,16.70
2010,08,18,09,05,16.80
2010,08,18,09,06,16.80
2010,08,18,09,07,16.80
2010,08,18,09,08,16.90
2010,08,18,09,09,16.80
2010,08,18,09,10,16.80
2010,08,18,09,11,16.80
2010,08,18,09,12,16.70
2010,08,18,09,13,16.70
2010,08,18,09,14,16.60
2010,08,18,09,15,16.60
2010,08,18,09,16,16.60
2010,08,18,09,17,16.60
2010,08,18,09,18,16.60
2010,08,18,09,19,16.60
2010,08,18,09,20,16.60
2010,08,18,09,21,16.60
2010,08,18,09,22,16.50
2010,08,18,09,23,16.40
2010,08,18,09,24,16.40
2010,08,18,09,25,16.40
2010,08,18,09,26,16.40
2010,08,18,09,27,16.40
2010,08,18,09,28,16.30
2010,08,18,09,29,16.30
2010,08,18,09,30,16.30
2010,08,18,09,31,16.20
2010,08,18,09,32,16.20
2010,08,18,09,33,16.10
2010,08,18,09,34,16.10
2010,08,18,09,35,16.10
2010,08,18,09,36,16.10
2010,08,18,09,37,16.10
2010,08,18,09,38,16.10
2010,08,18,09,39,16.20
2010,08,18,09,40,16.20
2010,08,18,09,41,16.20
2010,08,18,09,42,16.20
2010,08,18,09,43,16.20
2010,08,18,09,44,16.20
2010,08,18,09,45,16.30
2010,08,18,09,46,16.30
2010,08,18,09,47,16.40
2010,08,18,09,48,16.50
2010,08,18,09,49,16.60
2010,08,18,09,50,16.70
2010,08,18,09,51,16.70
2010,08,18,09,52,16.70
2010,08,18,09,53,16.60
2010,08,18,09,54,16.60
2010,08,18,09,55,16.50
2010,08,18,09,56,16.40
2010,08,18,09,57,16.30
2010,08,18,09,58,16.20
2010,08,18,09,59,16.20
2010,08,18,10,00,16.20
2010,08,18,10,01,16.10
2010,08,18,10,02,16.10
2010,08,18,10,03,16.10
2010,08,18,10,04,16.10
2010,08,18,10,05,16.10
2010,08,18,10,06,16.10
2010,08,18,10,07,16.20
2010,08,18,10,08,16.20
2010,08,18,10,09,16.20
2010,08,18,10,10,16.20
2010,08,18,10,11,16.10
2010,08,18,10,12,16.20
2010,08,18,10,13,16.20
2010,08,18,10,14,16.20
2010,08,18,10,15,16.20
2010,08,18,10,16,16.20
2010,08,18,10,17,16.20
2010,08,18,10,18,16.20
2010,08,18,10,19,16.20
2010,08,18,10,20,16.30
2010,08,18,10,21,16.30
2010,08,18,10,22,16.30
2010,08,18,10,23,16.30
2010,08,18,10,24,16.40
2010,08,18,10,25,16.40
2010,08,18,10,26,16.40
2010,08,18,10,27,16.50
2010,08,18,10,28,16.50
2010,08,18,10,29,16.50
2010,08,18,10,30,16.50
2010,08,18,10,31,16.50
2010,08,18,10,32,16.50
2010,08,18,10,33,16.50
2010,08,18,10,34,16.60
2010,08,18,10,35,16.60
2010,08,18,10,36,16.70
2010,08,18,10,37,16.60
2010,08,18,10,38,16.60
2010,08,18,10,39,16.60
2010,08,18,10,40,16.60
2010,08,18,10,41,16.60
2010,08,18,10,42,16.70
2010,08,18,10,43,16.80
2010,08,18,10,44,16.80
2010,08,18,10,45,16.90
2010,08,18,10,46,16.90
2010,08,18,10,47,16.90
2010,08,18,10,48,16.80
2010,08,18,10,49,16.80
2010,08,18,10,50,16.70
2010,08,18,10,51,16.70
2010,08,18,10,52,16.70
2010,08,18,10,53,16.70
2010,08,18,10,54,16.70
2010,08,18,10,55,16.70
2010,08,18,10,56,16.80
2010,08,18,10,57,16.80
2010,08,18,10,58,16.90
2010,08,18,10,59,17.00
2010,08,18,11,00,17.10
2010,08,18,11,01,17.00
2010,08,18,11,02,16.90
2010,08,18,11,03,16.90
2010,08,18,11,04,16.80
2010,08,18,11,05,16.80
2010,08,18,11,06,16.80
2010,08,18,11,07,16.70
2010,08,18,11,08,16.60
2010,08,18,11,09,16.70
2010,08,18,11,10,16.60
2010,08,18,11,11,16.70
2010,08,18,11,12,16.80
2010,08,18,11,13,16.80
2010,08,18,11,14,16.70
2010,08,18,11,15,16.80
2010,08,18,11,16,16.80
2010,08,18,11,17,16.70
2010,08,18,11,18,16.70
2010,08,18,11,19,16.70
2010,08,18,11,20,16.70
2010,08,18,11,21,16.70
2010,08,18,11,22,16.60
2010,08,18,11,23,16.50
2010,08,18,11,24,16.40
2010,08,18,11,25,16.30
2010,08,18,11,26,16.30
2010,08,18,11,27,16.50
2010,08,18,11,28,16.70
2010,08,18,11,29,16.70
2010,08,18,11,30,16.60
2010,08,18,11,31,16.60
2010,08,18,11,32,16.80
2010,08,18,11,33,16.90
2010,08,18,11,34,16.90
2010,08,18,11,35,16.80
2010,08,18,11,36,16.80
2010,08,18,11,37,16.70
2010,08,18,11,38,16.60
2010,08,18,11,39,16.60
2010,08,18,11,40,16.50
2010,08,18,11,41,16.50
2010,08,18,11,42,16.60
2010,08,18,11,43,16.60
2010,08,18,11,44,16.60
2010,08,18,11,45,16.60
2010,08,18,11,46,16.60
2010,08,18,11,47,16.70
2010,08,18,11,48,16.80
2010,08,18,11,49,16.90
2010,08,18,11,50,16.90
2010,08,18,11,51,16.80
2010,08,18,11,52,16.80
2010,08,18,11,53,16.90
2010,08,18,11,54,17.10
2010,08,18,11,55,17.10
2010,08,18,11,56,17.10
2010,08,18,11,57,17.10
2010,08,18,11,58,17.10
2010,08,18,11,59,17.20
2010,08,18,12,00,17.30
2010,08,18,12,01,17.20
2010,08,18,12,02,17.20
2010,08,18,12,03,17.40
2010,08,18,12,04,17.50
2010,08,18,12,05,17.50
2010,08,18,12,06,17.60
2010,08,18,12,07,17.60
2010,08,18,12,08,17.40
2010,08,18,12,09,17.40
2010,08,18,12,10,17.50
2010,08,18,12,11,17.60
2010,08,18,12,12,17.50
2010,08,18,12,13,17.40
2010,08,18,12,14,17.30
2010,08,18,12,15,17.10
2010,08,18,12,16,17.00
2010,08,18,12,17,17.00
2010,08,18,12,18,16.90
2010,08,18,12,19,16.90
2010,08,18,12,20,16.90
2010,08,18,12,21,16.90
2010,08,18,12,22,16.80
2010,08,18,12,23,16.80
2010,08,18,12,24,16.70
2010,08,18,12,25,16.70
2010,08,18,12,26,16.80
2010,08,18,12,27,16.80
2010,08,18,12,28,16.80
2010,08,18,12,29,16.70
2010,08,18,12,30,16.70
2010,08,18,12,31,16.80
2010,08,18,12,32,16.80
2010,08,18,12,33,16.70
2010,08,18,12,34,16.70
2010,08,18,12,35,16.70
2010,08,18,12,36,16.70
2010,08,18,12,37,16.70
2010,08,18,12,38,16.70
2010,08,18,12,39,16.80
2010,08,18,12,40,16.80
2010,08,18,12,41,16.80
2010,08,18,12,42,16.70
2010,08,18,12,43,16.80
2010,08,18,12,44,16.80
2010,08,18,12,45,16.80
2010,08,18,12,46,16.80
2010,08,18,12,47,16.70
2010,08,18,12,48,16.80
2010,08,18,12,49,16.80
2010,08,18,12,50,16.80
2010,08,18,12,51,16.80
2010,08,18,12,52,16.80
2010,08,18,12,53,16.80
2010,08,18,12,54,16.70
2010,08,18,12,55,16.70
2010,08,18,12,56,16.90
2010,08,18,12,57,17.10
2010,08,18,12,58,17.10
2010,08,18,12,59,17.10
2010,08,18,13,00,17.10
2010,08,18,13,01,17.00
2010,08,18,13,02,16.90
2010,08,18,13,03,17.00
2010,08,18,13,04,16.90
2010,08,18,13,05,16.80
2010,08,18,13,06,16.90
2010,08,18,13,07,17.10
2010,08,18,13,08,17.20
2010,08,18,13,09,17.20
2010,08,18,13,10,17.20
2010,08,18,13,11,17.20
2010,08,18,13,12,17.20
2010,08,18,13,13,17.10
2010,08,18,13,14,17.10
2010,08,18,13,15,17.00
2010,08,18,13,16,17.00
2010,08,18,13,17,17.00
2010,08,18,13,18,16.90
2010,08,18,13,19,16.90
2010,08,18,13,20,16.90
2010,08,18,13,21,16.90
2010,08,18,13,22,17.00
2010,08,18,13,23,16.90
2010,08,18,13,24,16.90
2010,08,18,13,25,16.90
2010,08,18,13,26,16.90
2010,08,18,13,27,17.00
2010,08,18,13,28,17.00
2010,08,18,13,29,17.10
2010,08,18,13,30,17.20
2010,08,18,13,31,17.40
2010,08,18,13,32,17.60
2010,08,18,13,33,17.60
2010,08,18,13,34,17.50
2010,08,18,13,35,17.50
2010,08,18,13,36,17.50
2010,08,18,13,37,17.40
2010,08,18,13,38,17.40
2010,08,18,13,39,17.30
2010,08,18,13,40,17.30
2010,08,18,13,41,17.20
2010,08,18,13,42,17.20
2010,08,18,13,43,17.20
2010,08,18,13,44,17.20
2010,08,18,13,45,17.20
2010,08,18,13,46,17.20
2010,08,18,13,47,17.30
2010,08,18,13,48,17.20
2010,08,18,13,49,17.20
2010,08,18,13,50,17.20
2010,08,18,13,51,17.20
2010,08,18,13,52,17.30
2010,08,18,13,53,17.30
2010,08,18,13,54,17.30
2010,08,18,13,55,17.30
2010,08,18,13,56,17.20
2010,08,18,13,57,17.10
2010,08,18,13,58,17.00
2010,08,18,13,59,17.00
2010,08,18,14,00,17.10
2010,08,18,14,01,17.30
2010,08,18,14,02,17.30
2010,08,18,14,03,17.20
2010,08,18,14,04,17.20
2010,08,18,14,05,17.20
2010,08,18,14,06,17.10
2010,08,18,14,07,17.00
2010,08,18,14,08,17.00
2010,08,18,14,09,17.10
2010,08,18,14,10,17.00
2010,08,18,14,11,17.00
2010,08,18,14,12,17.10
2010,08,18,14,13,17.10
2010,08,18,14,14,17.20
2010,08,18,14,15,17.10
2010,08,18,14,16,17.10
2010,08,18,14,17,17.10
2010,08,18,14,18,17.10
2010,08,18,14,19,17.10
2010,08,18,14,20,17.10
2010,08,18,14,21,17.10
2010,08,18,14,22,17.10
2010,08,18,14,23,17.10
2010,08,18,14,24,17.10
2010,08,18,14,25,17.10
2010,08,18,14,26,17.10
2010,08,18,14,27,17.00
2010,08,18,14,28,16.90
2010,08,18,14,29,16.80
2010,08,18,14,30,16.80
2010,08,18,14,31,16.90
2010,08,18,14,32,17.00
2010,08,18,14,33,17.00
2010,08,18,14,34,16.90
2010,08,18,14,35,17.00
2010,08,18,14,36,17.00
2010,08,18,14,37,17.10
2010,08,18,14,38,17.10
2010,08,18,14,39,17.10
2010,08,18,14,40,17.10
2010,08,18,14,41,17.20
2010,08,18,14,42,17.30
2010,08,18,14,43,17.20
2010,08,18,14,44,17.20
2010,08,18,14,45,17.10
2010,08,18,14,46,17.00
2010,08,18,14,47,16.90
2010,08,18,14,48,17.00
2010,08,18,14,49,17.00
2010,08,18,14,50,17.00
2010,08,18,14,51,17.00
2010,08,18,14,52,17.20
2010,08,18,14,53,17.30
2010,08,18,14,54,17.40
2010,08,18,14,55,17.50
2010,08,18,14,56,17.50
2010,08,18,14,57,17.60
2010,08,18,14,58,17.50
2010,08,18,14,59,17.40
2010,08,18,15,00,17.40
2010,08,18,15,01,17.50
2010,08,18,15,02,17.40
2010,08,18,15,03,17.20
2010,08,18,15,04,17.20
2010,08,18,15,05,17.30
2010,08,18,15,06,17.40
2010,08,18,15,07,17.40
2010,08,18,15,08,17.40
2010,08,18,15,09,17.50
2010,08,18,15,10,17.60
2010,08,18,15,11,17.60
2010,08,18,15,12,17.60
2010,08,18,15,13,17.60
2010,08,18,15,14,17.60
2010,08,18,15,15,17.50
2010,08,18,15,16,17.40
2010,08,18,15,17,17.30
2010,08,18,15,18,17.20
2010,08,18,15,19,17.20
2010,08,18,15,20,17.30
2010,08,18,15,21,17.40
2010,08,18,15,22,17.40
2010,08,18,15,23,17.30
2010,08,18,15,24,17.30
2010,08,18,15,25,17.20
2010,08,18,15,26,17.10
2010,08,18,15,27,17.10
2010,08,18,15,28,17.10
2010,08,18,15,29,17.10
2010,08,18,15,30,17.20
2010,08,18,15,31,17.20
2010,08,18,15,32,17.20
2010,08,18,15,33,17.20
2010,08,18,15,34,17.20
2010,08,18,15,35,17.20
2010,08,18,15,36,17.20
2010,08,18,15,37,17.20
2010,08,18,15,38,17.30
2010,08,18,15,39,17.30
2010,08,18,15,40,17.20
2010,08,18,15,41,17.20
2010,08,18,15,42,17.20
2010,08,18,15,43,17.20
2010,08,18,15,44,17.20
2010,08,18,15,45,17.10
2010,08,18,15,46,17.10
2010,08,18,15,47,17.20
2010,08,18,15,48,17.20
2010,08,18,15,49,17.30
2010,08,18,15,50,17.30
2010,08,18,15,51,17.30
2010,08,18,15,52,17.40
2010,08,18,15,53,17.40
2010,08,18,15,54,17.40
2010,08,18,15,55,17.30
2010,08,18,15,56,17.30
2010,08,18,15,57,17.20
2010,08,18,15,58,17.20
2010,08,18,15,59,17.20
2010,08,18,16,00,17.20
2010,08,18,16,01,17.20
2010,08,18,16,02,17.20
2010,08,18,16,03,17.20
2010,08,18,16,04,17.10
2010,08,18,16,05,17.10
2010,08,18,16,06,17.10
2010,08,18,16,07,17.20
2010,08,18,16,08,17.20
2010,08,18,16,09,17.20
2010,08,18,16,10,17.20
2010,08,18,16,11,17.20
2010,08,18,16,12,17.30
2010,08,18,16,13,17.30
2010,08,18,16,14,17.40
2010,08,18,16,15,17.40
2010,08,18,16,16,17.40
2010,08,18,16,17,17.40
2010,08,18,16,18,17.30
2010,08,18,16,19,17.30
2010,08,18,16,20,17.30
2010,08,18,16,21,17.40
2010,08,18,16,22,17.50
2010,08,18,16,23,17.50
2010,08,18,16,24,17.40
2010,08,18,16,25,17.30
2010,08,18,16,26,17.30
2010,08,18,16,27,17.30
2010,08,18,16,28,17.30
2010,08,18,16,29,17.30
2010,08,18,16,30,17.30
2010,08,18,16,31,17.30
2010,08,18,16,32,17.30
2010,08,18,16,33,17.30
2010,08,18,16,34,17.40
2010,08,18,16,35,17.40
2010,08,18,16,36,17.40
2010,08,18,16,37,17.40
2010,08,18,16,38,17.40
2010,08,18,16,39,17.40
2010,08,18,16,40,17.40
2010,08,18,16,41,17.40
2010,08,18,16,42,17.40
2010,08,18,16,43,17.30
2010,08,18,16,44,17.30
2010,08,18,16,45,17.30
2010,08,18,16,46,17.40
2010,08,18,16,47,17.40
2010,08,18,16,48,17.50
2010,08,18,16,49,17.50
2010,08,18,16,50,17.50
2010,08,18,16,51,17.40
2010,08,18,16,52,17.40
2010,08,18,16,53,17.40
2010,08,18,16,54,17.40
2010,08,18,16,55,17.50
2010,08,18,16,56,17.60
2010,08,18,16,57,17.50
2010,08,18,16,58,17.50
2010,08,18,16,59,17.40
2010,08,18,17,00,17.40
2010,08,18,17,01,17.40
2010,08,18,17,02,17.40
2010,08,18,17,03,17.40
2010,08,18,17,04,17.40
2010,08,18,17,05,17.40
2010,08,18,17,06,17.40
2010,08,18,17,07,17.40
2010,08,18,17,08,17.40
2010,08,18,17,09,17.30
2010,08,18,17,10,17.30
2010,08,18,17,11,17.30
2010,08,18,17,12,17.30
2010,08,18,17,13,17.30
2010,08,18,17,14,17.40
2010,08,18,17,15,17.40
2010,08,18,17,16,17.50
2010,08,18,17,17,17.50
2010,08,18,17,18,17.60
2010,08,18,17,19,17.60
2010,08,18,17,20,17.60
2010,08,18,17,21,17.60
2010,08,18,17,22,17.60
2010,08,18,17,23,17.70
2010,08,18,17,24,17.80
2010,08,18,17,25,17.90
2010,08,18,17,26,17.90
2010,08,18,17,27,17.80
2010,08,18,17,28,17.80
2010,08,18,17,29,17.80
2010,08,18,17,30,17.80
2010,08,18,17,31,17.70
2010,08,18,17,32,17.70
2010,08,18,17,33,17.80
2010,08,18,17,34,17.80
2010,08,18,17,35,17.70
2010,08,18,17,36,17.70
2010,08,18,17,37,17.70
2010,08,18,17,38,17.70
2010,08,18,17,39,17.70
2010,08,18,17,40,17.70
2010,08,18,17,41,17.60
2010,08,18,17,42,17.70
2010,08,18,17,43,17.70
2010,08,18,17,44,17.70
2010,08,18,17,45,17.70
2010,08,18,17,46,17.80
2010,08,18,17,47,17.70
2010,08,18,17,48,17.70
2010,08,18,17,49,17.60
2010,08,18,17,50,17.60
2010,08,18,17,51,17.60
2010,08,18,17,52,17.70
2010,08,18,17,53,17.80
2010,08,18,17,54,17.70
2010,08,18,17,55,17.70
2010,08,18,17,56,17.60
2010,08,18,17,57,17.60
2010,08,18,17,58,17.60
2010,08,18,17,59,17.60
2010,08,18,18,00,17.60
2010,08,18,18,01,17.60
2010,08,18,18,02,17.60
2010,08,18,18,03,17.60
2010,08,18,18,04,17.60
2010,08,18,18,05,17.60
2010,08,18,18,06,17.60
2010,08,18,18,07,17.60
2010,08,18,18,08,17.60
2010,08,18,18,09,17.60
2010,08,18,18,10,17.60
2010,08,18,18,11,17.60
2010,08,18,18,12,17.60
2010,08,18,18,13,17.60
2010,08,18,18,14,17.60
2010,08,18,18,15,17.60
2010,08,18,18,16,17.60
2010,08,18,18,17,17.60
2010,08,18,18,18,17.60
2010,08,18,18,19,17.50
2010,08,18,18,20,17.50
2010,08,18,18,21,17.50
2010,08,18,18,22,17.50
2010,08,18,18,23,17.50
2010,08,18,18,24,17.50
2010,08,18,18,25,17.60